Location: Kitchener
(43.4500°N, 80.5000°W)
Time: 23:37:18
(UTC-05:00)

ATLAS 5 CENTAUR R/B - Visible Passes

Search period start: 12 February 2016 00:00
Search period end: 22 February 2016 00:00
Orbit: 675 x 986 km, 63.4° (Epoch: 28 January)

Date Brightness Start Highest point End Pass type
(mag) Time Alt. Az. Time Alt. Az. Time Alt. Az.
12 Feb 3.8 05:53:10 10° S 05:57:25 30° ESE 06:01:56 10° NE visible
13 Feb 3.9 05:34:26 10° S 05:38:36 28° ESE 05:43:01 10° NE visible
14 Feb 3.9 05:15:43 10° S 05:19:47 27° ESE 05:24:05 10° ENE visible
15 Feb 4.0 04:57:01 10° SSE 05:00:58 25° ESE 05:05:08 10° ENE visible
15 Feb 2.2 06:40:29 10° WSW 06:45:18 49° NW 06:50:31 10° NNE visible
16 Feb 4.0 04:39:05 13° SSE 04:42:09 23° ESE 04:46:11 10° ENE visible
16 Feb 2.1 06:21:35 10° SW 06:26:25 52° NW 06:31:40 10° NNE visible
17 Feb 3.9 04:21:50 19° SE 04:23:20 22° ESE 04:27:14 10° ENE visible
17 Feb 2.1 06:03:27 14° SW 06:07:33 55° NW 06:12:49 10° NNE visible
18 Feb 4.0 04:04:20 20° ESE 04:04:31 20° ESE 04:08:16 10° ENE visible
18 Feb 2.0 05:45:57 26° WSW 05:48:41 58° NW 05:53:58 10° NNE visible
19 Feb 4.3 03:46:40 18° E 03:46:40 18° E 03:49:17 10° ENE visible
19 Feb 1.9 05:28:15 41° WSW 05:29:48 62° NW 05:35:07 10° NNE visible
20 Feb 4.6 03:28:52 15° E 03:28:52 15° E 03:30:17 10° ENE visible
20 Feb 1.8 05:10:26 61° W 05:10:56 65° NW 05:16:16 10° NNE visible
21 Feb 4.9 03:10:56 11° ENE 03:10:56 11° ENE 03:11:16 10° ENE visible
21 Feb 2.0 04:52:30 65° NNW 04:52:30 65° NNW 04:57:24 10° NNE visible
21 Feb 3.7 06:34:27 10° WNW 06:37:50 17° NNW 06:41:25 10° NNE visible
